{"data":{"norad_id":54068,"epoch":"2026-09-20T06:34:26.914368Z","epoch_age_seconds":106430,"freshness":"FRESH","line1":"1 54068U 22136T   26263.27392262 -.00000365  00000+0  44126-6 0  9996","line2":"2 54068  53.1603 180.5318 0001468  86.1573 273.9598 15.35392095216350","mean_motion":15.35392095,"eccentricity":0.0001468,"inclination_deg":53.1603,"raan_deg":180.5318,"arg_perigee_deg":86.1573,"mean_anomaly_deg":273.9598,"bstar":4.4126e-7,"rev_number":21635,"period_min":93.787118267012,"perigee_km":458.75230996027,"apogee_km":460.75991537814,"semimajor_km":6837.8931126692,"source":"CELESTRAK","updated_at":"2026-09-21T09:00:33.078835Z"}}